Regional Weather Roundup
Issued by NWS

Home | Current Version | Previous Version | Text Only | Print | Product List | Glossary On
Versions: 1 2 3 4 5 6 7 8 9 10 11 12 13 14 15 16 17 18 19 20 21 22 23 24 25 26 27 28 29 30 31 32 33 34 35 36 37 38 39 40 41 42 43 44 45 46 47 48 49 50
000
ASUS45 KABQ 221810
RWRNM
NEW MEXICO REGIONAL WEATHER ROUNDUP
NATIONAL WEATHER SERVICE ALBUQUERQUE NM
1100 AM MST WED NOV 22 2017

NOTE: "FAIR" MEANS FEW OR NO CLOUDS BELOW 12,000 FEET AGL WITH NO
       SIGNIFICANT WEATHER OR OBSTRUCTIONS TO VISION.

      THIS PRODUCT IS RELEASED AS TWO VERSIONS.  ONE VERSION NEAR
      THE TOP OF THE HOUR CONTAINING PRELIMINARY DATA FROM ALBUQUERQUE
      AND OTHER STATIONS.  A FINAL VERSION WITH ADDITIONAL DATA IS
      ISSUED ABOUT 10 MINUTES AFTER THE HOUR.

NMZ501-503-504-510>518-221900-
NORTHWEST PLATEAU/NORTHCENTRAL MOUNTAINS

CITY           SKY/WX    TMP DP  RH WIND       PRES   REMARKS
FARMINGTON     FAIR      46  27  47 CALM      30.41F
6HR MIN TEMP:  26; 6HR MAX TEMP:  46;

LOS ALAMOS     FAIR      50  28  42 E3        30.44F
SANTA FE       FAIR      50  29  44 N15       30.40F
6HR MIN TEMP:  29; 6HR MAX TEMP:  51;

TAOS           FAIR      48  27  44 NE9       30.46F
ANGEL FIRE     FAIR      49  22  34 CALM      30.45S

$$
NMZ402-403-502-505>509-221900-
WESTCENTRAL MOUNTAINS/SOUTHWEST MOUNTAINS

CITY           SKY/WX    TMP DP  RH WIND       PRES   REMARKS
GALLUP         FAIR      52  27  38 CALM      30.47F
6HR MIN TEMP:  21; 6HR MAX TEMP:  52;

GRANTS         FAIR      51  28  40 NW8       30.46F
SILVER CITY    FAIR      59  20  22 SE6       30.42F

$$
NMZ407-409-411-412-221900-
SOUTHERN DESERTS

CITY           SKY/WX    TMP DP  RH WIND       PRES   REMARKS
DEMING         FAIR      60  25  26 VRB3      30.40F
6HR MIN TEMP:  39; 6HR MAX TEMP:  61;

LAS CRUCES     FAIR      59  24  26 SE5       30.41F
ALAMOGORDO     FAIR      57  25  28 CALM      30.42S
T OR C         FAIR      57  25  29 SE5       30.40F
6HR MIN TEMP:  37; 6HR MAX TEMP:  57;


$$
NMZ519>523-221900-
CENTRAL VALLEYS/CENTRAL HIGHLANDS

CITY           SKY/WX    TMP DP  RH WIND       PRES   REMARKS
ALBUQUERQUE    PTSUNNY   51  28  41 CALM      30.42F
6HR MIN TEMP:  34; 6HR MAX TEMP:  51;

DOUBLE EAGLE   PTSUNNY   52  27  37 CALM      30.43F
MORIARTY ARPT  FAIR      57  29  33 W5        30.41F
6HR MIN TEMP:  21; 6HR MAX TEMP:  57;

CLINES CORNERS FAIR      51  26  37 NW21      30.40F
6HR MIN TEMP:  28; 6HR MAX TEMP:  51;

BELEN          FAIR      52  26  35 E5        30.43F
6HR MIN TEMP:  28; 6HR MAX TEMP:  53;

SOCORRO        FAIR      52  23  33 CALM      30.41F
6HR MIN TEMP:  32; 6HR MAX TEMP:  52;


$$
NMZ524>526-539-540-221900-
SOUTHCENTRAL MOUNTAINS

CITY           SKY/WX    TMP DP  RH WIND       PRES   REMARKS
RUIDOSO        FAIR      55  23  28 NW14G22   30.42F

$$
NMZ527>531-221900-
NORTHEAST HIGHLANDS/NORTHEAST PLAINS

CITY           SKY/WX    TMP DP  RH WIND       PRES   REMARKS
LAS VEGAS      FAIR      57  24  28 N6        30.37F
6HR MIN TEMP:  25; 6HR MAX TEMP:  58;

RATON          FAIR      51  29  42 CALM      30.34F
6HR MIN TEMP:  24; 6HR MAX TEMP:  51;

CLAYTON        FAIR      62  26  25 N7        30.28F
6HR MIN TEMP:  33; 6HR MAX TEMP:  62;


$$
NMZ532>537-221900-
EASTCENTRAL PLAINS

CITY           SKY/WX    TMP DP  RH WIND       PRES   REMARKS
SANTA ROSA     FAIR      52  28  39 CALM      30.32F
TUCUMCARI      FAIR      54  28  36 W6        30.30F
6HR MIN TEMP:  28; 6HR MAX TEMP:  54;

CANNON AFB     FAIR      54  27  36 SW15      30.35F
6HR MIN TEMP:  30; 6HR MAX TEMP:  54;

CLOVIS AIRPORT FAIR      52  28  39 SW14      30.35F

$$
NMZ028-029-538-221900-
SOUTHEAST PLAINS

CITY           SKY/WX    TMP DP  RH WIND       PRES   REMARKS
ROSWELL        FAIR      54  27  35 S12G17    30.37F
6HR MIN TEMP:  29; 6HR MAX TEMP:  54;

ARTESIA        FAIR      54  28  37 SE17      30.38F
CARLSBAD       FAIR      55  29  36 S15       30.37F
6HR MIN TEMP:  30; 6HR MAX TEMP:  55;

HOBBS          SUNNY     52  27  37 S12       30.40F


$$




USA.gov is the U.S. government's official web portal to all federal, state and local government web resources and services.